When you browse on this site, cookies collect data to enhance your experience and personalize the content and advertising you see.
Visit our Privacy Policy to learn more. By continuing to use the site, you agree to this use of cookies and data.
  • In Belgium
  • List of Countries
  • For 7 days
  • Water Temperature
  • Weather Map
  • Weather Widgets
  • user-avatar
    Login

    Hourly Weather Kalgoorlie

    Today, 26 May, Tuesday

    Time Temperature Precipitation Wind Pressure Humidity
    00:00 +8°C° 0 mm 7 mps 728 mmHg 63%
    01:00 +8°C° 0 mm 7 mps 728 mmHg 65%
    02:00 +6°C° 0 mm 7 mps 728 mmHg 67%
    03:00 +6°C° 0 mm 7 mps 728 mmHg 69%
    04:00 +5°C° 0 mm 6 mps 729 mmHg 71%
    05:00 +5°C° 0 mm 6 mps 729 mmHg 72%
    06:00 +5°C° 0 mm 6 mps 730 mmHg 71%
    07:00 +5°C° 0 mm 6 mps 730 mmHg 69%
    08:00 +7°C° 0 mm 6 mps 731 mmHg 66%
    09:00 +8°C° 0 mm 6 mps 731 mmHg 59%
    10:00 +10°C° 0 mm 7 mps 731 mmHg 52%
    11:00 +11°C° 0 mm 7 mps 731 mmHg 44%
    12:00 +12°C° 0 mm 7 mps 731 mmHg 42%
    13:00 +14°C° 0 mm 7 mps 730 mmHg 40%
    14:00 +15°C° 0 mm 6 mps 730 mmHg 38%
    15:00 +14°C° 0 mm 5 mps 730 mmHg 40%
    16:00 +13°C° 0 mm 4 mps 731 mmHg 43%
    17:00 +13°C° 0 mm 3 mps 732 mmHg 45%
    18:00 +12°C° 0 mm 3 mps 732 mmHg 49%
    19:00 +11°C° 0 mm 3 mps 733 mmHg 53%
    20:00 +10°C° 0 mm 3 mps 733 mmHg 56%
    21:00 +10°C° 0 mm 3 mps 733 mmHg 59%
    22:00 +9°C° 0 mm 3 mps 733 mmHg 62%
    23:00 +9°C° 0 mm 2 mps 734 mmHg 65%

    Tomorrow, 27 May, Wednesday

    Time Temperature Precipitation Wind Pressure Humidity
    00:00 +8°C° 0 mm 2 mps 733 mmHg 67%
    01:00 +8°C° 0 mm 2 mps 733 mmHg 69%
    02:00 +7°C° 0 mm 2 mps 733 mmHg 70%
    03:00 +7°C° 0 mm 2 mps 733 mmHg 72%
    04:00 +8°C° 0 mm 1 mps 733 mmHg 74%
    05:00 +7°C° 0 mm 1 mps 733 mmHg 76%
    06:00 +8°C° 0 mm 1 mps 734 mmHg 72%
    07:00 +9°C° 0 mm 1 mps 734 mmHg 67%
    08:00 +10°C° 0 mm 1 mps 734 mmHg 63%
    09:00 +12°C° 0 mm 2 mps 734 mmHg 57%
    10:00 +13°C° 0 mm 2 mps 734 mmHg 51%
    11:00 +13°C° 0 mm 3 mps 734 mmHg 45%
    12:00 +14°C° 0 mm 3 mps 733 mmHg 42%
    13:00 +16°C° 0 mm 3 mps 733 mmHg 39%
    14:00 +17°C° 0 mm 3 mps 732 mmHg 36%
    15:00 +16°C° 0 mm 3 mps 732 mmHg 38%
    16:00 +14°C° 0 mm 3 mps 732 mmHg 40%
    17:00 +15°C° 0 mm 2 mps 732 mmHg 42%
    18:00 +14°C° 0 mm 2 mps 732 mmHg 44%
    19:00 +13°C° 0 mm 2 mps 733 mmHg 46%
    20:00 +13°C° 0 mm 2 mps 733 mmHg 48%
    21:00 +12°C° 0 mm 2 mps 733 mmHg 52%
    22:00 +12°C° 0 mm 2 mps 733 mmHg 55%
    23:00 +10°C° 0 mm 2 mps 733 mmHg 58%

    Day after tomorrow, 28 May, Thursday

    Time Temperature Precipitation Wind Pressure Humidity
    00:00 +10°C° 0 mm 2 mps 733 mmHg 63%
    01:00 +9°C° 0 mm 2 mps 733 mmHg 68%
    02:00 +10°C° 0 mm 1 mps 733 mmHg 73%
    03:00 +9°C° 0 mm 1 mps 733 mmHg 74%
    04:00 +8°C° 0 mm 2 mps 733 mmHg 74%
    05:00 +8°C° 0 mm 2 mps 733 mmHg 75%
    06:00 +9°C° 0 mm 2 mps 733 mmHg 71%
    07:00 +10°C° 0 mm 2 mps 733 mmHg 67%
    08:00 +12°C° 0 mm 2 mps 734 mmHg 63%
    09:00 +13°C° 0 mm 3 mps 733 mmHg 55%
    10:00 +14°C° 0 mm 4 mps 733 mmHg 47%
    11:00 +17°C° 0 mm 4 mps 733 mmHg 40%
    12:00 +17°C° 0 mm 5 mps 733 mmHg 36%
    13:00 +19°C° 0 mm 5 mps 732 mmHg 33%
    14:00 +19°C° 0 mm 5 mps 731 mmHg 30%
    15:00 +18°C° 0 mm 4 mps 731 mmHg 31%
    16:00 +17°C° 0 mm 4 mps 731 mmHg 33%
    17:00 +16°C° 0 mm 3 mps 731 mmHg 34%
    18:00 +16°C° 0 mm 3 mps 731 mmHg 35%
    19:00 +14°C° 0 mm 3 mps 731 mmHg 36%
    20:00 +13°C° 0 mm 3 mps 731 mmHg 37%
    21:00 +13°C° 0 mm 3 mps 731 mmHg 38%
    22:00 +12°C° 0 mm 3 mps 731 mmHg 38%
    23:00 +12°C° 0 mm 3 mps 731 mmHg 39%

    29 May, Friday

    Time Temperature Precipitation Wind Pressure Humidity
    00:00 +11°C° 0 mm 3 mps 730 mmHg 40%
    01:00 +11°C° 0 mm 3 mps 730 mmHg 41%
    02:00 +11°C° 0 mm 3 mps 730 mmHg 42%
    03:00 +10°C° 0 mm 3 mps 729 mmHg 41%
    04:00 +10°C° 0 mm 3 mps 729 mmHg 41%
    05:00 +10°C° 0 mm 4 mps 729 mmHg 40%
    06:00 +10°C° 0 mm 4 mps 729 mmHg 38%
    07:00 +11°C° 0 mm 4 mps 729 mmHg 36%
    08:00 +12°C° 0 mm 4 mps 729 mmHg 35%
    09:00 +14°C° 0 mm 6 mps 729 mmHg 31%
    10:00 +17°C° 0 mm 7 mps 729 mmHg 28%
    11:00 +21°C° 0 mm 9 mps 728 mmHg 24%
    12:00 +21°C° 0 mm 9 mps 727 mmHg 22%
    13:00 +22°C° 0 mm 10 mps 727 mmHg 21%
    14:00 +22°C° 0 mm 10 mps 726 mmHg 19%
    15:00 +21°C° 0 mm 9 mps 725 mmHg 20%
    16:00 +20°C° 0 mm 7 mps 725 mmHg 22%
    17:00 +19°C° 0 mm 6 mps 725 mmHg 24%
    18:00 +17°C° 0 mm 6 mps 725 mmHg 26%
    19:00 +16°C° 0 mm 6 mps 725 mmHg 29%
    20:00 +15°C° 0 mm 7 mps 725 mmHg 31%
    21:00 +15°C° 0 mm 7 mps 725 mmHg 36%
    22:00 +13°C° 0 mm 8 mps 725 mmHg 41%
    23:00 +13°C° 0 mm 9 mps 725 mmHg 46%

    30 May, Saturday

    Time Temperature Precipitation Wind Pressure Humidity
    00:00 +12°C° 0.6 mm 9 mps 725 mmHg 57%
    01:00 +11°C° 0.6 mm 10 mps 725 mmHg 67%
    02:00 +9°C° 0.6 mm 11 mps 726 mmHg 78%
    03:00 +9°C° 0.2 mm 10 mps 726 mmHg 73%
    04:00 +8°C° 0.2 mm 10 mps 727 mmHg 69%
    05:00 +8°C° 0.2 mm 9 mps 728 mmHg 64%
    06:00 +8°C° 0 mm 9 mps 729 mmHg 64%
    07:00 +7°C° 0 mm 9 mps 729 mmHg 65%
    08:00 +7°C° 0 mm 8 mps 730 mmHg 65%
    09:00 +9°C° 0 mm 8 mps 731 mmHg 58%
    10:00 +10°C° 0 mm 8 mps 731 mmHg 51%
    11:00 +11°C° 0 mm 7 mps 732 mmHg 44%
    12:00 +12°C° 0 mm 7 mps 731 mmHg 40%
    13:00 +12°C° 0 mm 7 mps 731 mmHg 35%
    14:00 +14°C° 0 mm 6 mps 731 mmHg 31%
    15:00 +13°C° 0 mm 5 mps 731 mmHg 32%
    16:00 +12°C° 0 mm 4 mps 731 mmHg 34%
    17:00 +11°C° 0 mm 3 mps 732 mmHg 36%
    18:00 +11°C° 0 mm 3 mps 732 mmHg 38%
    19:00 +10°C° 0 mm 3 mps 733 mmHg 40%
    20:00 +9°C° 0 mm 2 mps 733 mmHg 43%
    21:00 +8°C° 0 mm 2 mps 733 mmHg 45%
    22:00 +8°C° 0 mm 2 mps 733 mmHg 47%
    23:00 +7°C° 0 mm 2 mps 733 mmHg 49%

    31 May, Sunday

    Time Temperature Precipitation Wind Pressure Humidity
    00:00 +7°C° 0 mm 2 mps 733 mmHg 51%
    01:00 +7°C° 0 mm 2 mps 733 mmHg 53%
    02:00 +6°C° 0 mm 2 mps 733 mmHg 55%
    03:00 +6°C° 0 mm 2 mps 733 mmHg 56%
    04:00 +6°C° 0 mm 2 mps 733 mmHg 57%
    05:00 +6°C° 0 mm 2 mps 733 mmHg 59%
    06:00 +6°C° 0 mm 2 mps 734 mmHg 57%
    07:00 +7°C° 0 mm 2 mps 734 mmHg 55%
    08:00 +8°C° 0 mm 2 mps 735 mmHg 53%
    09:00 +9°C° 0 mm 3 mps 735 mmHg 49%
    10:00 +11°C° 0 mm 3 mps 735 mmHg 46%
    11:00 +13°C° 0 mm 3 mps 735 mmHg 42%
    12:00 +14°C° 0 mm 3 mps 734 mmHg 41%
    13:00 +16°C° 0 mm 3 mps 734 mmHg 40%
    14:00 +16°C° 0 mm 3 mps 733 mmHg 38%
    15:00 +16°C° 0 mm 3 mps 733 mmHg 41%
    16:00 +14°C° 0 mm 3 mps 734 mmHg 44%
    17:00 +14°C° 0 mm 2 mps 734 mmHg 47%
    18:00 +14°C° 0 mm 2 mps 734 mmHg 50%
    19:00 +13°C° 0 mm 2 mps 735 mmHg 53%
    20:00 +13°C° 0 mm 2 mps 735 mmHg 56%
    21:00 +11°C° 0 mm 3 mps 735 mmHg 59%
    22:00 +11°C° 0 mm 3 mps 735 mmHg 62%
    23:00 +10°C° 0 mm 3 mps 735 mmHg 65%
    Show more